Denver Centennial, CO

6:16 AM MDT on June 28, 2017 (GMT -0600)
Centennial

Weather History for KAPA - October, 2013

Change the Weather History Date:

Tuesday, October 22, 2013

  Actual Average Record
Temperature  
Mean Temperature 49 °F -  
Max Temperature 61 °F 59 °F 82 °F (2003)
Min Temperature 36 °F 32 °F 21 °F (2007)
Degree Days  
Heating Degree Days 16    
Month to date heating degree days 391  
Moisture  
Dew Point 27 °F    
Average Humidity 48    
Maximum Humidity 70    
Minimum Humidity 26    
Precipitation  
Precipitation 0.00 in - - ()
Month to date precipitation 0.28  
Year to date precipitation 17.09  
Sea Level Pressure  
Sea Level Pressure 30.15 in    
Wind  
Wind Speed 5 mph (SSE)    
Max Wind Speed 14 mph    
Max Gust Speed 17 mph    
Visibility 10 miles    
Events      
Averages and records for this station are not official NWS values.
T = Trace of Precipitation, MM = Missing Value Source: NWS Daily Summary

Daily Weather History Graph

Daily Weather History Graph

Search for Another Location

Airport or City:

Trip Planner

Search our weather history database for the weather conditions in past years. The results will help you decide how hot, cold, wet, or windy it might be!

Date:

Astronomy

Oct. 22, 2013 Rise Set
Actual Time 7:17 AM MDT 6:09 PM MDT
Civil Twilight 6:49 AM MDT 6:37 PM MDT
Nautical Twilight 6:18 AM MDT 7:08 PM MDT
Astronomical Twilight 5:47 AM MDT 7:39 PM MDT
Moon 8:53 PM MDT (10/22) 10:46 AM MDT (10/22)
Length of Visible Light 11h 47m
Length of Day
10h 52m
Waning Gibbous, 86% of the Moon is Illuminated
Oct 22
Waning Gibbous
Oct 26
Last Quarter
Nov 3
New
Nov 9
First Quarter
Nov 17
Full

Hourly Weather History & Observations

Time (MDT) Temp. Windchill Dew Point Humidity Pressure Visibility Wind Dir Wind Speed Gust Speed Precip Events Conditions
12:53 AM 36.0 °F - 27.0 °F 70% 30.17 in 10.0 mi Calm Calm - N/A   Partly Cloudy
1:53 AM 42.1 °F 40.2 °F 24.1 °F 49% 30.14 in 10.0 mi SW 3.5 mph - N/A   Partly Cloudy
2:53 AM 43.0 °F 36.8 °F 24.1 °F 47% 30.13 in 10.0 mi WSW 11.5 mph - N/A   Partly Cloudy
3:53 AM 43.0 °F 37.2 °F 24.1 °F 47% 30.11 in 10.0 mi WSW 10.4 mph - N/A   Partly Cloudy
4:53 AM 43.0 °F 36.4 °F 24.1 °F 47% 30.12 in 10.0 mi SW 12.7 mph - N/A   Clear
5:53 AM 39.9 °F - 23.0 °F 51% 30.16 in 10.0 mi Calm Calm - N/A   Clear
6:53 AM 37.9 °F 33.5 °F 24.1 °F 57% 30.18 in 10.0 mi SE 5.8 mph - N/A   Partly Cloudy
7:53 AM 39.0 °F 35.7 °F 25.0 °F 57% 30.22 in 10.0 mi South 4.6 mph - N/A   Scattered Clouds
8:53 AM 46.9 °F - 30.9 °F 54% 30.23 in 10.0 mi Calm Calm - N/A   Scattered Clouds
9:53 AM 48.9 °F - 30.9 °F 50% 30.23 in 10.0 mi East 3.5 mph - N/A   Mostly Cloudy
10:53 AM 54.0 °F - 26.1 °F 34% 30.22 in 10.0 mi Calm Calm - N/A   Mostly Cloudy
11:53 AM 57.0 °F - 26.1 °F 30% 30.20 in 10.0 mi Variable 3.5 mph - N/A   Mostly Cloudy
12:53 PM 59.0 °F - 25.0 °F 27% 30.17 in 10.0 mi ESE 6.9 mph - N/A   Scattered Clouds
1:53 PM 60.1 °F - 27.0 °F 28% 30.13 in 10.0 mi ENE 9.2 mph - N/A   Scattered Clouds
2:53 PM 60.1 °F - 28.9 °F 31% 30.11 in 10.0 mi Variable 5.8 mph - N/A   Scattered Clouds
3:53 PM 60.1 °F - 28.9 °F 31% 30.11 in 10.0 mi East 4.6 mph - N/A   Scattered Clouds
4:53 PM 59.0 °F - 30.0 °F 33% 30.11 in 10.0 mi East 3.5 mph - N/A   Scattered Clouds
5:53 PM 57.0 °F - 30.0 °F 36% 30.12 in 10.0 mi Calm Calm - N/A   Scattered Clouds
6:53 PM 52.0 °F - 30.9 °F 45% 30.14 in 10.0 mi SSE 4.6 mph - N/A   Clear
7:53 PM 46.9 °F - 30.9 °F 54% 30.16 in 10.0 mi South 8.1 mph - N/A   Clear
8:53 PM 46.9 °F - 30.0 °F 52% 30.13 in 10.0 mi South 8.1 mph - N/A   Clear
9:53 PM 46.0 °F 43.1 °F 28.9 °F 51% 30.12 in 10.0 mi SSE 5.8 mph - N/A   Clear
10:53 PM 45.0 °F 41.2 °F 28.9 °F 53% 30.11 in 10.0 mi South 6.9 mph - N/A   Clear
11:53 PM 44.1 °F 41.5 °F 28.9 °F 55% 30.09 in 10.0 mi SSE 4.6 mph - N/A   Clear